CW2640 Weather Reports


Display with metric or nautical units.
time (UTC)temp
F
wind
direction
speed
MPH
gust
MPH
rain 1hr
in
rain 24hr
in
rain mn
in
humidity
%
barometer
mb
20260505221332 74 130 0.0 0.0 0.00 0.00 0.00 68 1012.3
20260505214328 74 119 0.0 0.0 0.00 0.00 0.00 68 1012.2
20260505211327 75 118 0.0 0.0 0.00 0.00 0.00 66 1012.2
20260505204322 74 109 0.0 0.0 0.00 0.00 0.00 64 1012.5
20260505201320 75 88 0.0 0.0 0.00 0.00 0.00 62 1012.6
20260505194319 76 110 0.0 0.0 0.00 0.00 0.00 62 1013.0
20260505191315 76 98 0.0 0.0 0.00 0.00 0.00 63 1013.2
20260505184310 76 109 0.0 0.0 0.00 0.00 0.00 59 1013.8
20260505181308 75 97 0.0 0.0 0.00 0.00 0.00 59 1014.4
20260505174305 73 96 0.0 0.0 0.00 0.00 0.00 62 1014.5
20260505171300 73 102 0.0 0.0 0.00 0.00 0.00 65 1014.8
20260505164256 74 97 0.0 0.0 0.00 0.00 0.00 63 1014.9
20260505161252 71 110 0.0 0.0 0.00 0.00 0.00 68 1014.8
20260505151247 71 105 0.0 0.0 0.00 0.00 0.00 69 1015.2
20260505124233 57 80 0.0 0.0 0.00 0.00 0.00 93 1014.6
20260505121230 54 80 0.0 0.0 0.00 0.00 0.00 99 1014.2
20260505114229 52 80 0.0 0.0 0.00 0.00 0.00 99 1014.0
20260505111225 52 146 0.0 0.0 0.00 0.00 0.00 99 1013.1
20260505101217 53 170 0.0 0.0 0.00 0.00 0.00 98 1013.2
20260505094214 54 170 0.0 0.0 0.00 0.00 0.00 97 1013.2
20260505091209 55 170 0.0 0.0 0.00 0.00 0.00 95 1013.4
20260505084208 55 170 0.0 0.0 0.00 0.00 0.00 94 1013.6
20260505081205 55 170 0.0 0.0 0.00 0.00 0.00 94 1013.8
20260505074202 56 170 0.0 0.0 0.00 0.00 0.00 93 1013.8
20260505071201 56 170 0.0 0.0 0.00 0.00 0.00 93 1013.9
20260505064200 55 171 0.0 0.0 0.00 0.00 0.00 94 1013.7
20260505061159 55 176 0.0 0.0 0.00 0.00 0.00 92 1013.9
20260505054158 55 183 0.0 0.0 0.00 0.00 0.00 91 1014.1
20260505051153 56 188 0.0 0.0 0.00 0.00 0.00 89 1013.8
20260505041151 58 194 0.0 0.0 0.00 0.00 0.00 86 1013.8
20260505034150 60 194 0.0 0.0 0.00 0.00 0.00 84 1013.9
20260505031148 61 192 0.0 0.0 0.00 0.00 0.00 79 1013.9
20260505024147 61 192 0.0 0.0 0.00 0.00 0.00 78 1013.7
20260505021142 63 194 0.0 0.0 0.00 0.00 0.00 74 1013.9
20260505014138 64 197 0.0 0.0 0.00 0.00 0.00 72 1013.5
20260505011133 67 205 0.0 0.0 0.00 0.00 0.00 64 1013.3
20260505004128 69 210 0.0 0.0 0.00 0.00 0.00 61 1012.9
20260505001124 73 216 0.0 0.0 0.00 0.00 0.00 52 1012.8
20260504234123 74 219 0.0 0.0 0.00 0.00 0.00 49 1012.9
20260504231120 75 219 0.0 0.0 0.00 0.00 0.00 48 1013.0
20260504224120 76 216 0.0 0.0 0.00 0.00 0.00 46 1013.3